LiveATC.Net - Listen to live air traffic control over the Internet!
Airport/ARTCC Code
Frequency Search
(e.g., 124.400, 128.75)
Site-wide search
 


Browse Feeds
Top 50 Feeds
HF Oceanic Feeds
Coverage Map
Bad Weather Areas

LiveATC FAQ
Offer LiveATC feed
Contact LiveATC.net
Press Inquiries

LiveATC on iPhone
LiveATC on Android

LiveATC Mobile
(Mobile browser)

ATC Audio Archives
Interesting Recordings

LiveATC Forums

Home Page
About LiveATC.net


Terms of Use
Privacy Policy

AIRMETs/SIGMETs

FAA Airport Status
NAS Status
Arrival Demand


Server Software By:
Icecast.org
Liquidsoap

Select an area of interest:
U.S. Feeds: Class B Airports | Class C Airports | Class D/Other Airports | ARTCC (Centers)
International Feeds: Canada | Europe | Oceania | Asia | South America | North/Central America | Africa
Misc Feeds: HF Feeds
Search by ICAO/IATA airport code:   (e.g., kbos, kjfk, lax, eham, etc.)


Currently Available Live Feeds: 3096
Status Updated: Mon Sep 26 2022 11:48:04 UTC


NOTICE

Unauthorized use prohibited. See LiveATC.net Terms of Service

South America Airport Feeds

 

SAEZ Gnd/Twr/Control
Buenos Aires, Argentina

Feed Status: DOWN
Offline since: 2022-09-06 21:55:40 UTC

SAEZ 261100Z 19002KT 9000 NSC 14/12 Q1014 NOSIG RMK PP000


SANT Tower/Apps (Archives)
Tucuman, Argentina

Feed Status: UP
Listen in your browser - HTML5 player(in browser, HTML5)
Click here to listen with your own player(launches your MP3 player)

SANT 261100Z 36007KT CAVOK 13/04 Q1016 RMK PP000

SANT Flight Activity (Flightaware)

Listeners: 0 out of 1458 total

Aeroclub Tucuman: 119.000
Aerolineas Argentinas SOC Salta: 131.100
Aerolineas Argentinas SOC Tucuman: 131.950
Air To Air: 123.450
Andes Lineas Aereas: 132.000
Campo Arenal: 130.950
Catamarca Tower: 118.150
Copa Airlines: 129.400
Cordoba Centro Norte: 125.100
Cordoba Centro Sur: 126.500
Emergency/Guard: 121.500
Lan Argentina Operaciones: 131.700
Lan Peru: 131.300
Salta Tower: 128.850
Santiago del Estero Tower: 118.700
Taca Peru: 126.450
Termas de Rio Hondo: 118.200
Termas de Rio Hondo: 119.850
Tucuman Ground: 121.750
Tucuman Ground: 121.750
Tucuman Tower: 118.350
Tucuman Tower: 119.500

SASA Twr/App (Archives)
Salta, Argentina

Feed Status: UP
Listen in your browser - HTML5 player(in browser, HTML5)
Click here to listen with your own player(launches your MP3 player)

SASA 261100Z 26003KT CAVOK 10/01 Q1019 RMK PP000

SASA Flight Activity (Flightaware)

Listeners: 0 out of 1458 total

Cordoba Approach (North): 125.100
Salta Approach: 124.600
Salta Tower: 126.000
Salta Tower/Ground: 128.850

SAZN Tower (Archives)
Neuquen, Argentina

Feed Status: UP
Listen in your browser - HTML5 player(in browser, HTML5)
Click here to listen with your own player(launches your MP3 player)

SAZN 261100Z 27002KT CAVOK 06/02 Q1014

SAZN Flight Activity (Flightaware)

Listeners: 0 out of 1458 total

Neuquen Tower/Approach: 119.800

SAZS Gnd/Twr/App (Archives)
Rio Negro, Argentina

Feed Status: UP
Listen in your browser - HTML5 player(in browser, HTML5)
Click here to listen with your own player(launches your MP3 player)

SAZS 261100Z 31016KT 9999 FEW009 SCT040 04/02 Q1011 RMK PP///

SAZS Flight Activity (Flightaware)

Listeners: 0 out of 1458 total

Bariloche Twr/App: 119.100
Comodoro Rivadavia Control: 125.500
Ezeiza South: 125.200

SBBE Twr/App/SBAZ (Archives)
Belem, Brazil

Feed Status: UP
Listen in your browser - HTML5 player(in browser, HTML5)
Click here to listen with your own player(launches your MP3 player)

SBBE 261100Z 09007KT CAVOK 27/23 Q1013

SBBE Flight Activity (Flightaware)

Listeners: 1 out of 1458 total

Amazonica FIR (SBAZ): 126.500
Amazonica FIR (SBAZ): 128.000
Amazonica FIR (SBAZ): 123.950
Amazonica FIR (SBAZ): 126.150
Amazonica FIR (SBAZ): 126.650
Amazonica FIR (SBAZ): 133.700
Belem Approach: 119.050
Belem Approach: 119.500
Belem Tower: 118.700

SBBR Approach (Archives)
Brasilia, Brazil

Feed Status: UP
Listen in your browser - HTML5 player(in browser, HTML5)
Click here to listen with your own player(launches your MP3 player)

SBBR 261100Z 07011KT CAVOK 21/17 Q1021

SBBR Flight Activity (Flightaware)

Listeners: 2 out of 1458 total

Brasilia Approach: 120.650
Brasilia Approach: 129.150
Brasilia Approach: 129.600
Brasilia Approach (Final): 119.200
Brasilia Departure: 119.500
Brasilia Departure: 119.700

SBBR Ground
Brasilia, Brazil

Feed Status: DOWN
Offline since: 2022-09-25 18:31:06 UTC

SBBR 261100Z 07011KT CAVOK 21/17 Q1021

Brasilia Ground: 121.950
Brasilia Ground: 121.800

SBBR Tower
Brasilia, Brazil

Feed Status: DOWN
Offline since: 2022-09-26 00:00:22 UTC

SBBR 261100Z 07011KT CAVOK 21/17 Q1021

Brasilia Tower: 118.100
Brasilia Tower: 181.750
Brasilia Tower: 118.450

SBCT Gnd/Twr/App (Archives)
Curitiba, Brazil

Feed Status: UP
Listen in your browser - HTML5 player(in browser, HTML5)
Click here to listen with your own player(launches your MP3 player)

SBCT 261100Z VRB04KT 9999 FEW015 BKN018 BKN090 14/14 Q1019

SBCT Flight Activity (Flightaware)

Listeners: 2 out of 1458 total

Curitiba Approach: 119.950
Curitiba Ground: 121.900
Curitiba Tower: 118.150
Curitiba Tower: 118.900

SBDN Twr/App
Presidente Prudente/Sao Paulo, Brazil

Feed Status: DOWN
Offline since: 2022-09-06 23:40:39 UTC

SBDN 261100Z 12017KT CAVOK 19/14 Q1016

Air-to-Air: 123.450
Curitiba Sector 13: 133.595
Prudente Approach: 118.450
Prudente Tower: 125.450

SBEG Tower/App (Archives)
Manaus, Brazil

Feed Status: UP
Listen in your browser - HTML5 player(in browser, HTML5)
Click here to listen with your own player(launches your MP3 player)

SBEG 261100Z 07006KT CAVOK 26/22 Q1011

SBEG Flight Activity (Flightaware)

Listeners: 2 out of 1458 total

Emergency/Guard: 121.500
Manaus Approach : 119.250
Manaus Approach: 120.400
Manaus Approach: 119.700
Manaus Tower: 118.300

SBFZ ACC/Misc
Fortaleza, Brazil

Feed Status: DOWN
Offline since: 2022-09-26 10:56:23 UTC

SBFZ 261100Z 16009KT 9999 BKN020 26/22 Q1015

Ait to Air: 123.450
SBAC: 131.250
SBJE: 131.050
SBJU: 131.750
SBMS: 125.800
SBPB: 126.600
SBRF ACC: 135.250
SBRF ACC: 133.500
SBRF ACC: 126.350
SBRF ACC: 125.150

SBFZ Twr/App/Center
Fortaleza, Brazil

Feed Status: DOWN
Offline since: 2022-09-04 13:13:40 UTC

SBFZ 261100Z 16009KT 9999 BKN020 26/22 Q1015

ACC-RE (Fortaleza Sector): 125.150
ACC-RE (Fortaleza Sector): 126.350
ACC-RE (Fortaleza Sector): 135.250
Fortaleza Approach: 133.000
Fortaleza Tower: 129.000

SBGO Gnd/Twr/App (Archives)
Goiania, Brazil

Feed Status: UP
Listen in your browser - HTML5 player(in browser, HTML5)
Click here to listen with your own player(launches your MP3 player)

SBGO 261100Z 05005KT 010V100 CAVOK 26/18 Q1019

SBGO Flight Activity (Flightaware)

Listeners: 4 out of 1458 total

Anapolis Approach: 119.150
Anapolis Approach: 120.550
Anapolis Approach: 133.000
Anapolis Approach: 129.450
Emergency/Guard: 121.500
Goiania Ground: 121.700
Goiania Tower: 118.700
Goiania Tower: 121.050

SBJP Tower (Archives)
Joao Pessoa, Brazil

Feed Status: UP
Listen in your browser - HTML5 player(in browser, HTML5)
Click here to listen with your own player(launches your MP3 player)

SBJP 261100Z 13009KT 9999 BKN022 26/23 Q1017

SBJP Flight Activity (Flightaware)

Listeners: 0 out of 1458 total

Joao Pessoa Tower: 118.300

SBJP Twr/Control/Airlines (Archives)
Joao Pessoa, Brazil

Feed Status: UP
Listen in your browser - HTML5 player(in browser, HTML5)
Click here to listen with your own player(launches your MP3 player)

SBJP 261100Z 13009KT 9999 BKN022 26/23 Q1017

SBJP Flight Activity (Flightaware)

Listeners: 0 out of 1458 total

AZUL: 130.900
GOL: 131.225
Joao Pessoa Tower: 118.300
Recife Control: 119.500
TAM: 130.500

SBJU Tower/Center (Archives)
Juazeiro do Norte, Brazil

Feed Status: UP
Listen in your browser - HTML5 player(in browser, HTML5)
Click here to listen with your own player(launches your MP3 player)

SBJU 261100Z 14007KT 9999 SCT020 26/17 Q1020

SBJU Flight Activity (Flightaware)

Listeners: 2 out of 1458 total

Pilot-to-Pilot: 123.450
Radio Juazeiro: 131.750
Recife Center: 135.250
Recife Center: 125.150

SBKP Approach
Campinas, Brazil

Feed Status: DOWN
Offline since: 2022-08-25 10:44:39 UTC

SBKP 261109Z 18007KT 150V220 4000 -TSRA BR FEW020 BKN030 FEW050CB OVC100 16/15 Q1022

Campinas Approach: 132.100
Campinas Approach: 135.750

SBKP Tower #1 (Archives)
Campinas, Brazil

Feed Status: UP
Listen in your browser - HTML5 player(in browser, HTML5)
Click here to listen with your own player(launches your MP3 player)

SBKP 261109Z 18007KT 150V220 4000 -TSRA BR FEW020 BKN030 FEW050CB OVC100 16/15 Q1022

SBKP Flight Activity (Flightaware)

Listeners: 3 out of 1458 total

Campinas Tower: 118.250

SBKP Tower #2 (Archives)
Campinas, Brazil

Feed Status: UP
Listen in your browser - HTML5 player(in browser, HTML5)
Click here to listen with your own player(launches your MP3 player)

SBKP 261109Z 18007KT 150V220 4000 -TSRA BR FEW020 BKN030 FEW050CB OVC100 16/15 Q1022

SBKP Flight Activity (Flightaware)

Listeners: 0 out of 1458 total

Campinas Tower: 118.250

SBLO Twr/App/Center (Archives)
Londrina, Brazil

Feed Status: UP
Listen in your browser - HTML5 player(in browser, HTML5)
Click here to listen with your own player(launches your MP3 player)

SBLO 261100Z 11011KT 9999 FEW040 OVC100 16/15 Q1016

SBLO Flight Activity (Flightaware)

Listeners: 0 out of 1458 total

Curitiba Center: 128.350
Curitiba Center: 135.100
Curitiba Center: 125.800
Curitiba Center: 126.950
Emergency/Guard: 121.500
Londrina Approach: 129.700
Londrina Tower: 118.400
UNICOM: 123.450

SBMG Twr/App
Maringa, Brazil

Feed Status: DOWN
Offline since: 2022-09-26 10:00:40 UTC

SBMG 261100Z 15010KT 9000 -RA FEW030 BKN045 FEW045TCU OVC100 17/15 Q1014

Londrina Approach: 129.700
Maringa Tower: 118.750
UNICOM: 123.450

SBMK RDO/Center (Archives)
Montes Claros, Brazil

Feed Status: UP
Listen in your browser - HTML5 player(in browser, HTML5)
Click here to listen with your own player(launches your MP3 player)

SBMK Flight Activity (Flightaware)

Listeners: 0 out of 1458 total

Brasilia Center (Sector 15): 127.300
Montes Claros RDO: 131.700

SBMQ Tower/App/Center (Archives)
Macapa, Brazil

Feed Status: UP
Listen in your browser - HTML5 player(in browser, HTML5)
Click here to listen with your own player(launches your MP3 player)

SBMQ 261100Z 03005KT 9999 FEW015 29/25 Q1013

SBMQ Flight Activity (Flightaware)

Listeners: 0 out of 1458 total

Amazonico Center: 123.950
Amazonico Center: 128.000
Macapa Approach: 119.000
Macapa Tower: 118.000

SBMT Tower
Sao Paulo, Brazil

Feed Status: DOWN
Offline since: 2022-02-08 12:31:22 UTC

Marte Tower: 133.350

SBNF Tower
Navegantes, Brazil

Feed Status: DOWN
Offline since: 2022-07-24 11:29:40 UTC

SBNF 261100Z 26007KT 9999 OVC017 16/14 Q1017

Navegantes Tower: 118.200

SBPA Gnd/Twr/App/Center (Archives)
Porto Alegre, Brazil

Feed Status: UP
Listen in your browser - HTML5 player(in browser, HTML5)
Click here to listen with your own player(launches your MP3 player)

SBPA 261100Z 07003KT CAVOK 18/16 Q1015

SBPA Flight Activity (Flightaware)

Listeners: 2 out of 1458 total

BACO (Canoas) Ground: 121.700
BACO (Canoas) Tower: 118.500
BACO (Canoas) Tower (Mil): 122.800
Curitiba Center (Sector 1/South SBPA): 126.750
Curitiba Center (Sector 1/South SBPA): 127.400
Curitiba Center (Sector 2): 123.725
Curitiba Center (Sector 2): 135.900
Curitiba Center (Sector 3/West SBFL): 127.500
Curitiba Center (Sector 3/West SBFL): 126.100
Curitiba Center (Sector 4/South SBFL): 135.850
Curitiba Center (Sector 4/South SBFL): 128.450
Curitiba Center (Sector 5/East SBCT): 124.400
Curitiba Center (Sector 5/East SBCT): 125.400
Curitiba Center (Sector 6/East SBCT Atlantico): 128.400
Curitiba Center (Sector 6/East SBCT Atlantico): 127.050
Curitiba Center (Sector 9/North SBCT): 132.800
Curitiba Center (Sector 9/North SBCT): 126.500
Emergency/Guard: 121.500
Porto Alegre Approach Sector 1: 120.100
Porto Alegre Approach Sector 2: 120.550
Porto Alegre Approach Sector 3: 128.900
Porto Alegre Approach Sector 4: 119.000
Salgado Filho Ground: 121.900
Salgado Filho Tower: 118.100

SBPB Info (Archives)
Parnaiba, Brazil

Feed Status: UP
Listen in your browser - HTML5 player(in browser, HTML5)
Click here to listen with your own player(launches your MP3 player)

SBPB 261100Z 13016KT 9999 SCT018 29/22 Q1014

SBPB Flight Activity (Flightaware)

Listeners: 1 out of 1458 total

Parnaiba Info: 126.600

SBPL RDO/ACC (Archives)
Petrolina, Brazil

Feed Status: UP
Listen in your browser - HTML5 player(in browser, HTML5)
Click here to listen with your own player(launches your MP3 player)

SBPL 261100Z 15009KT 9999 SCT025 26/18 Q1019

SBPL Flight Activity (Flightaware)

Listeners: 2 out of 1458 total

ACC RE Sector 5: 127.500
ACC RE Sector 5: 128.450
ACC RE Sector 6: 125.400
ACC RE Sector 6: 134.900
Air to Air/UNICOM: 123.450
Emergency/Guard: 121.500
Misc: 123.400
Petrolina RDO: 125.700
Recife FIS: 123.625

SBRF App 129.60 (Archives)
Recife, Brazil

Feed Status: UP
Listen in your browser - HTML5 player(in browser, HTML5)
Click here to listen with your own player(launches your MP3 player)

SBRF 261100Z 12011KT 9999 SCT025 27/19 Q1017

SBRF Flight Activity (Flightaware)

Listeners: 4 out of 1458 total

Recife Approach: 129.600

SBRF Gol Ops (Archives)
Recife, Brazil

Feed Status: UP
Listen in your browser - HTML5 player(in browser, HTML5)
Click here to listen with your own player(launches your MP3 player)

SBRF 261100Z 12011KT 9999 SCT025 27/19 Q1017

SBRF Flight Activity (Flightaware)

Listeners: 0 out of 1458 total

Gol Ops: 131.225

SBRF Ground (Archives)
Recife, Brazil

Feed Status: UP
Listen in your browser - HTML5 player(in browser, HTML5)
Click here to listen with your own player(launches your MP3 player)

SBRF 261100Z 12011KT 9999 SCT025 27/19 Q1017

SBRF Flight Activity (Flightaware)

Listeners: 1 out of 1458 total

Recife Ground: 121.850

SBRF LATAM Ops (Archives)
Recife, Brazil

Feed Status: UP
Listen in your browser - HTML5 player(in browser, HTML5)
Click here to listen with your own player(launches your MP3 player)

SBRF 261100Z 12011KT 9999 SCT025 27/19 Q1017

SBRF Flight Activity (Flightaware)

Listeners: 0 out of 1458 total

LATAM Ops: 130.500

SBRF Recife ACC (Archives)
Recife, Brazil

Feed Status: UP
Listen in your browser - HTML5 player(in browser, HTML5)
Click here to listen with your own player(launches your MP3 player)

SBRF 261100Z 12011KT 9999 SCT025 27/19 Q1017

SBRF Flight Activity (Flightaware)

Listeners: 1 out of 1458 total

Recife Center: 128.700
Recife Center: 133.650
Recife Center: 134.800

SBRF Tower (Archives)
Recife, Brazil

Feed Status: UP
Listen in your browser - HTML5 player(in browser, HTML5)
Click here to listen with your own player(launches your MP3 player)

SBRF 261100Z 12011KT 9999 SCT025 27/19 Q1017

SBRF Flight Activity (Flightaware)

Listeners: 1 out of 1458 total

Recife Tower: 125.250
Recife Tower: 118.350
Recife Tower: 118.900

SBRP Tower/Center
Ribeirao Preto, Brazil

Feed Status: DOWN
Offline since: 2022-07-07 10:21:40 UTC

SBRP 261100Z 22006KT 180V250 7000 -RA BKN045 BKN100 21/17 Q1017 RETS

Leite Lopes Tower: 118.000
Pirassununga Center (North): 119.550

SBSL Twr/App/FIR
Sao Luis, Brazil

Feed Status: DOWN
Offline since: 2022-09-04 20:25:06 UTC

SBSL 261100Z 06011KT 9999 FEW020 29/22 Q1013

Amazonica Center: 133.700
Sao Luis Approach: 119.100
Sao Luis Tower: 118.900

SBSN Twr/App/ACC (Archives)
Santarem, Brazil

Feed Status: UP
Listen in your browser - HTML5 player(in browser, HTML5)
Click here to listen with your own player(launches your MP3 player)

SBSN 261100Z 12008KT 9999 SCT015 25/24 Q1013 RETS

SBSN Flight Activity (Flightaware)

Listeners: 0 out of 1458 total

Brasilia Center/ACC: 123.650
Brasilia Center/ACC: 125.050
Santarem Approach: 119.300
Santarem Tower: 118.100

SBSR AFIS/App/Center (Archives)
Sao Jose do Rio Preto, Brazil

Feed Status: UP
Listen in your browser - HTML5 player(in browser, HTML5)
Click here to listen with your own player(launches your MP3 player)

SBSR 261100Z 17009KT CAVOK 19/15 Q1017

SBSR Flight Activity (Flightaware)

Listeners: 1 out of 1458 total

Academia Approach (North Sector): 119.750
Academia Approach (North Sector): 120.400
Brasilia Center: 135.150
Rio Preto Radio AFIS: 130.850

SBTE Twr/App (Archives)
Teresina, Brazil

Feed Status: UP
Listen in your browser - HTML5 player(in browser, HTML5)
Click here to listen with your own player(launches your MP3 player)

SBTE 261100Z 14004KT CAVOK 28/20 Q1014

SBTE Flight Activity (Flightaware)

Listeners: 1 out of 1458 total

Teresina Approach: 119.600
Teresina Tower: 118.800

SBRE Recife ACC (Archives)
Paulo Afonso, Brazil

Feed Status: UP
Listen in your browser - HTML5 player(in browser, HTML5)
Click here to listen with your own player(launches your MP3 player)

SBRE Flight Activity (Flightaware)

Listeners: 0 out of 1458 total

Recife Center (ACC): 125.400
Recife Center (ACC): 125.450
Recife Center (ACC): 126.850
Recife Center (ACC): 133.650
Recife Center (ACC): 134.500
Recife Center (ACC): 134.900

SBUF AFIS/Center (Archives)
Paulo Afonso, Brazil

Feed Status: UP
Listen in your browser - HTML5 player(in browser, HTML5)
Click here to listen with your own player(launches your MP3 player)


SBUF Flight Activity (Flightaware)

Listeners: 0 out of 1458 total

Paulo Afonso Radio: 125.850
Recife Center: 133.650
Recife Center: 134.500
Recife Center: 125.450

SBQV AFIS
Vitoria da Conquista, Brazil

Feed Status: DOWN
Offline since: 2022-08-27 02:12:06 UTC

Conquista AFIS: 130.850
Despacho Azul: 131.875
Despacho Passaredo: 132.000

SCEL Gnd/Twr/Radar
Santiago, Chile

Feed Status: DOWN
Offline since: 2022-06-13 17:47:06 UTC

SCEL 261100Z VRB01KT 9999 OVC020 08/06 Q1019 NOSIG

Santiago Authorizations: 121.700
Santiago Control (Lat 3323S North): 128.100
Santiago Control (Lat 3323S South): 126.300
Santiago Ground (Primary): 122.200
Santiago Ground (Secondary): 122.500
Santiago Radar: 125.400
Santiago Radar: 135.400
Santiago Radar (Arrival, Primary): 129.700
Santiago Radar (Arrival, Secondary): 119.700
Santiago Radar (Arrival, Secondary): 123.800
Santiago Radar (Departure, Primary): 121.100
Santiago Radar (Departure, Secondary): 123.800
Santiago Radar (Information, Primary): 122.400
Santiago Radar (Information, Secondary): 120.800
Santiago Radar (Information, Secondary): 123.800
Santiago Tower (Primary): 118.100
Santiago Tower (Secondary): 118.350
SCTB Tobalaba Tower: 118.700

SEGU App/Dep/Info (Archives)
Guayaquil, Ecuador

Feed Status: UP
Listen in your browser - HTML5 player(in browser, HTML5)
Click here to listen with your own player(launches your MP3 player)

SEGU 261100Z 25005KT 9999 FEW010 BKN030 22/18 Q1011 NOSIG RMK A2985

SEGU Flight Activity (Flightaware)

Listeners: 0 out of 1458 total

Guayaquil Approach: 120.700
Guayaquil Approach (Secondary): 119.300
Guayaquil Info: 126.900

SEGU Gnd/Twr (Archives)
Guayaquil, Ecuador

Feed Status: UP
Listen in your browser - HTML5 player(in browser, HTML5)
Click here to listen with your own player(launches your MP3 player)

SEGU 261100Z 25005KT 9999 FEW010 BKN030 22/18 Q1011 NOSIG RMK A2985

SEGU Flight Activity (Flightaware)

Listeners: 0 out of 1458 total

Guayaquil Ground: 121.900
Guayaquil Ground (Secondary): 121.700
Guayaquil Tower: 118.300
Guayaquil Tower (Secondary): 118.900

SEGU Gnd/Twr/App (Archives)
Guayaquil, Ecuador

Feed Status: UP
Listen in your browser - HTML5 player(in browser, HTML5)
Click here to listen with your own player(launches your MP3 player)

SEGU 261100Z 25005KT 9999 FEW010 BKN030 22/18 Q1011 NOSIG RMK A2985

SEGU Flight Activity (Flightaware)

Listeners: 0 out of 1458 total

Guayaquil Approach: 120.700
Guayaquil Ground: 121.900
Guayaquil Tower: 118.300

SEGU Guayaquil Center (Archives)
Guayaquil, Ecuador

Feed Status: UP
Listen in your browser - HTML5 player(in browser, HTML5)
Click here to listen with your own player(launches your MP3 player)

SEGU 261100Z 25005KT 9999 FEW010 BKN030 22/18 Q1011 NOSIG RMK A2985

SEGU Flight Activity (Flightaware)

Listeners: 0 out of 1458 total

Guayaquil Center: 127.950
Guayaquil Center: 128.300
Guayaquil Center (Secondary): 128.000
Guayaquil Center (Secondary): 123.900

SEQM ATIS (Archives)
Quito, Ecuador

Feed Status: UP
Listen in your browser - HTML5 player(in browser, HTML5)
Click here to listen with your own player(launches your MP3 player)

SEQM 261100Z 15004KT 9999 FEW033 SCT300 08/07 Q1025 NOSIG RMK A3028

SEQM Flight Activity (Flightaware)

Listeners: 0 out of 1458 total

Quito ATIS: 118.700

SEQM Gnd/Twr/App (Archives)
Quito, Ecuador

Feed Status: UP
Listen in your browser - HTML5 player(in browser, HTML5)
Click here to listen with your own player(launches your MP3 player)

SEQM 261100Z 15004KT 9999 FEW033 SCT300 08/07 Q1025 NOSIG RMK A3028

SEQM Flight Activity (Flightaware)

Listeners: 0 out of 1458 total

Quito Approach/Departure: 119.700
Quito Approach/Departure: 121.200
Quito Ground: 121.900
Quito Tower: 118.100
Quito Tower (Secondary): 118.350

SEQM Tower (Archives)
Quito, Ecuador

Feed Status: UP
Listen in your browser - HTML5 player(in browser, HTML5)
Click here to listen with your own player(launches your MP3 player)

SEQM 261100Z 15004KT 9999 FEW033 SCT300 08/07 Q1025 NOSIG RMK A3028

SEQM Flight Activity (Flightaware)

Listeners: 0 out of 1458 total

Quito Tower: 118.100
Quito Tower (Secondary): 118.350

SKBO Del/Gnd/Twr/App
Bogota, Colombia

Feed Status: DOWN
Offline since: 2020-09-01 16:38:05 UTC

SKBO 261131Z VRB02KT 8000 1200NW R13L/0800D R13R/0750U PRFG FEW015 06/06 Q1027 NOSIG RMK A3034

Bogota Approach: 119.500
Bogota Clearance Delivery: 121.600
Bogota Departure (North): 121.300
Bogota Departure (South): 119.650
Bogota Ground (North): 121.800
Bogota Ground (South): 122.750
Bogota Information: 126.900
Bogota Tower (North): 118.100
Bogota Tower (South): 118.250
Guaymaral Ground: 121.700
Guaymaral Tower: 118.800

SNRZ Area (Archives)
Oliveira, Brazil

Feed Status: UP
Listen in your browser - HTML5 player(in browser, HTML5)
Click here to listen with your own player(launches your MP3 player)

SNRZ Flight Activity (Flightaware)

Listeners: 0 out of 1458 total

Azul: 130.900
Brasilia ACC-BS (Air Control Center): 133.450
Brasilia ACC-BS (Air Control Center): 135.550
Brasilia ACC-BS (Air Control Center): 126.150
Brasilia ACC-BS (Air Control Center): 126.800
Brasilia ACC-BS (Air Control Center): 125.050
Brasilia ACC-BS (Air Control Center): 126.500
Brasilia ACC-BS (Air Control Center): 122.650
Brasilia ACC-BS (Air Control Center): 126.550
Brasilia ACC-BS (Air Control Center): 123.350
Brasilia ACC-BS (Air Control Center): 124.750
Brasilia ACC-BS (Air Control Center): 134.750
Brasilia ACC-BS (Air Control Center): 133.600
Brasilia ACC-BS (Air Control Center): 124.800
Brasilia ACC-BS (Air Control Center): 124.250
Brasilia ACC-BS (Air Control Center): 127.300
Brasilia ACC-BS (Air Control Center): 127.000
Brasilia ACC-BS (Air Control Center): 124.250
Brasilia ACC-BS (Air Control Center): 127.300
Brasilia ACC-BS (Air Control Center): 127.000
Brasilia ACC-BS (Air Control Center): 133.450
Brasilia ACC-BS (Air Control Center): 135.550
Brasilia ACC-BS (Air Control Center): 126.150
Brasilia ACC-BS (Air Control Center): 126.800
Brasilia ACC-BS (Air Control Center): 125.050
Brasilia ACC-BS (Air Control Center): 126.500
Brasilia ACC-BS (Air Control Center): 122.650
Brasilia ACC-BS (Air Control Center): 126.550
Brasilia ACC-BS (Air Control Center): 123.350
Brasilia ACC-BS (Air Control Center): 124.750
Brasilia ACC-BS (Air Control Center): 134.750
Brasilia ACC-BS (Air Control Center): 133.600
Brasilia ACC-BS (Air Control Center): 124.800
Curitiba ACC-CW: 126.500
Curitiba ACC-CW: 134.750
Curitiba ACC-CW: 124.000
Curitiba ACC-CW: 125.350
Emergency: 121.500
Emergency: 121.500
GOL Coordination: 131.225
TAM Coordination: 130.500
TAM Maintenance: 130.600
Trip Coordination: 131.375

SPJC Approach (Archives)
Lima, Peru

Feed Status: UP
Listen in your browser - HTML5 player(in browser, HTML5)
Click here to listen with your own player(launches your MP3 player)

SPJC 261100Z 26005KT 9999 OVC016 14/11 Q1013 NOSIG RMK PP000

SPJC Flight Activity (Flightaware)

Listeners: 1 out of 1458 total

Lima Approach: 119.700

SPJC Ground (Archives)
Lima, Peru

Feed Status: UP
Listen in your browser - HTML5 player(in browser, HTML5)
Click here to listen with your own player(launches your MP3 player)

SPJC 261100Z 26005KT 9999 OVC016 14/11 Q1013 NOSIG RMK PP000

SPJC Flight Activity (Flightaware)

Listeners: 0 out of 1458 total

Lima Ground: 121.900

SPJC Tower (Archives)
Lima, Peru

Feed Status: UP
Listen in your browser - HTML5 player(in browser, HTML5)
Click here to listen with your own player(launches your MP3 player)

SPJC 261100Z 26005KT 9999 OVC016 14/11 Q1013 NOSIG RMK PP000

SPJC Flight Activity (Flightaware)

Listeners: 1 out of 1458 total

Lima Tower: 118.100

SPQU Radar (Archives)
Arequipa, Peru

Feed Status: UP
Listen in your browser - HTML5 player(in browser, HTML5)
Click here to listen with your own player(launches your MP3 player)

SPQU 261100Z 06010KT CAVOK 09/M23 Q1024 NOSIG RMK PP000

SPQU Flight Activity (Flightaware)

Listeners: 0 out of 1458 total

Radar Sur-dos: 128.800

SPST Tower
Tarapoto, Peru

Feed Status: DOWN
Offline since: 2022-09-26 11:46:40 UTC

SPST 261100Z 00000KT 9999 FEW025 21/21 Q1011 RMK BIRD HAZARD RWY 17/35 PP000

Tarapoto Tower: 118.400

SSBL Air to Air (Archives)
Blumenau, Brazil

Feed Status: UP
Listen in your browser - HTML5 player(in browser, HTML5)
Click here to listen with your own player(launches your MP3 player)

SSBL Flight Activity (Flightaware)

Listeners: 0 out of 1458 total

Air to Air: 123.450

SUAA Tower (Archives)
Montevideo, Uruguay

Feed Status: UP
Listen in your browser - HTML5 player(in browser, HTML5)
Click here to listen with your own player(launches your MP3 player)

SUAA 261100Z 02004KT 9999 FEW020 BKN070 15/13 Q1014

SUAA Flight Activity (Flightaware)

Listeners: 0 out of 1458 total

Adami Tower: 118.400
Adami Tower (backup): 122.100
Emergency/Guard: 121.500

SUCM AFIS/SUCA/SADF Twr (Archives)
Carmelo, Uruguay

Feed Status: UP
Listen in your browser - HTML5 player(in browser, HTML5)
Click here to listen with your own player(launches your MP3 player)


SUCM Flight Activity (Flightaware)

Listeners: 0 out of 1458 total

Carmelo AFIS: 122.100
Colonia Tower (SUCA): 120.800
San Fernando Tower (SADF): 120.700

SUDU Twr/App/FIR (Archives)
Durazno, Uruguay

Feed Status: UP
Listen in your browser - HTML5 player(in browser, HTML5)
Click here to listen with your own player(launches your MP3 player)


SUDU Flight Activity (Flightaware)

Listeners: 0 out of 1458 total

Durazno Twr/App: 120.400
Durazno Twr/App: 126.200
Montevideo Control - Centro (Central): 126.300

SUGA Twr/Info (Archives)
Pando, Uruguay

Feed Status: UP
Listen in your browser - HTML5 player(in browser, HTML5)
Click here to listen with your own player(launches your MP3 player)

SUGA Flight Activity (Flightaware)

Listeners: 0 out of 1458 total

SUGA Info: 126.200
SUGA Tower: 118.500

SULS Tower (Archives)
Punta del Este, Uruguay

Feed Status: UP
Listen in your browser - HTML5 player(in browser, HTML5)
Click here to listen with your own player(launches your MP3 player)

SULS 261100Z 05005KT 9999 BKN013 BKN200 16/13 Q1014

SULS Flight Activity (Flightaware)

Listeners: 0 out of 1458 total

Air to Air: 123.450
SULS A/G: 122.100
SULS Tower: 118.300

SUMO Tower (Archives)
Melo, Uruguay

Feed Status: UP
Listen in your browser - HTML5 player(in browser, HTML5)
Click here to listen with your own player(launches your MP3 player)


SUMO Flight Activity (Flightaware)

Listeners: 0 out of 1458 total

Melo Ramp: 122.100
Melo Tower: 118.600

Montevideo Control (Antena Este) (Archives)
Montevideo, Uruguay

Feed Status: UP
Listen in your browser - HTML5 player(in browser, HTML5)
Click here to listen with your own player(launches your MP3 player)

SUMU 261100Z 06004KT 9999 BKN026 BKN070 15/12 Q1014 TEMPO RA

SUMU Flight Activity (Flightaware)

Listeners: 0 out of 1458 total

Montevideo Control: 128.500
Montevideo Control: 126.300

SUMU App/Dep (Archives)
Montevideo, Uruguay

Feed Status: UP
Listen in your browser - HTML5 player(in browser, HTML5)
Click here to listen with your own player(launches your MP3 player)

SUMU 261100Z 06004KT 9999 BKN026 BKN070 15/12 Q1014 TEMPO RA

SUMU Flight Activity (Flightaware)

Listeners: 0 out of 1458 total

SUMU Approach: 119.200
SUMU Approach: 120.200
SUMU Control: 128.500

SUMU Twr/App (Archives)
Montevideo, Uruguay

Feed Status: UP
Listen in your browser - HTML5 player(in browser, HTML5)
Click here to listen with your own player(launches your MP3 player)

SUMU 261100Z 06004KT 9999 BKN026 BKN070 15/12 Q1014 TEMPO RA

SUMU Flight Activity (Flightaware)

Listeners: 0 out of 1458 total

SUMU Approach: 119.200
SUMU Tower: 118.100

SUMU Twr/Info (Archives)
Montevideo, Uruguay

Feed Status: UP
Listen in your browser - HTML5 player(in browser, HTML5)
Click here to listen with your own player(launches your MP3 player)

SUMU 261100Z 06004KT 9999 BKN026 BKN070 15/12 Q1014 TEMPO RA

SUMU Flight Activity (Flightaware)

Listeners: 0 out of 1458 total

SUMU Info: 121.800
SUMU Tower: 118.100

SUPE CTAF (Archives)
Punta del Este, Uruguay

Feed Status: UP
Listen in your browser - HTML5 player(in browser, HTML5)
Click here to listen with your own player(launches your MP3 player)

SULS 261100Z 05005KT 9999 BKN013 BKN200 16/13 Q1014

SULS Flight Activity (Flightaware)

Listeners: 0 out of 1458 total

SUPE CTAF: 118.700

SUPU AFIS (Archives)
Paysandu, Uruguay

Feed Status: UP
Listen in your browser - HTML5 player(in browser, HTML5)
Click here to listen with your own player(launches your MP3 player)


SUPU Flight Activity (Flightaware)

Listeners: 0 out of 1458 total

Paysandu AFIS: 118.200
Paysandu AFIS: 118.700

SURV Tower/Ramp (Archives)
Rivera, Uruguay

Feed Status: UP
Listen in your browser - HTML5 player(in browser, HTML5)
Click here to listen with your own player(launches your MP3 player)


SURV Flight Activity (Flightaware)

Listeners: 0 out of 1458 total

Rivera Flying Club Ops: 118.100
Rivera Ramp/Tower: 118.000
Rivera Ramp/Tower: 122.100

SUSO Tower/Ramp (Archives)
Salto, Uruguay

Feed Status: UP
Listen in your browser - HTML5 player(in browser, HTML5)
Click here to listen with your own player(launches your MP3 player)

SUSO 261100Z 34004KT 8000 NSC 12/12 Q1015

SUSO Flight Activity (Flightaware)

Listeners: 0 out of 1458 total


SVPR Twr/App/FIR (Archives)
Ciudad Guayana, Venezuela

Feed Status: UP
Listen in your browser - HTML5 player(in browser, HTML5)
Click here to listen with your own player(launches your MP3 player)

SVPR Flight Activity (Flightaware)

Listeners: 2 out of 1458 total

Emergency/Guard: 121.500
FIR 6: 126.000
Guayana Approach (Primary): 119.500
Guayana Approach (Secondary): 120.300
Guayana Tower (Primary): 118.000
Guayana Tower (Secondary): 123.500
SMC: 121.900

TNCA Twr/App/Apron (Archives)
Oranjestad, Aruba

Feed Status: UP
Listen in your browser - HTML5 player(in browser, HTML5)
Click here to listen with your own player(launches your MP3 player)

TNCA 261100Z 11009KT 9999 FEW017 28/25 Q1010 NOSIG

TNCA Flight Activity (Flightaware)

Listeners: 0 out of 1458 total

Beatrix Ground (Apron): 121.600
Beatrix Tower: 118.000
Beatrix Twr/App: 120.900
Emergency/Guard: 121.500
Search/Rescue: 123.100

TNCB ATIS (Archives)
Kralendijk, Bonaire

Feed Status: UP
Listen in your browser - HTML5 player(in browser, HTML5)
Click here to listen with your own player(launches your MP3 player)

TNCB 261055Z 10006KT 070V130 CAVOK 28/25 Q1010

TNCB Flight Activity (Flightaware)

Listeners: 0 out of 1458 total

Bonaire ATIS: 132.300

TNCB Tower (Archives)
Kralendijk, Bonaire

Feed Status: UP
Listen in your browser - HTML5 player(in browser, HTML5)
Click here to listen with your own player(launches your MP3 player)

TNCB 261055Z 10006KT 070V130 CAVOK 28/25 Q1010

TNCB Flight Activity (Flightaware)

Listeners: 0 out of 1458 total

Bonaire Tower: 118.700

TNCC ATIS (Archives)
Willemstad, Curacao

Feed Status: UP
Listen in your browser - HTML5 player(in browser, HTML5)
Click here to listen with your own player(launches your MP3 player)

TNCC 261100Z 12008KT 9999 SCT021 28/24 Q1011 NOSIG

TNCC Flight Activity (Flightaware)

Listeners: 0 out of 1458 total

Hato ATIS: 132.600

TNCC Control (Archives)
Willemstad, Curacao

Feed Status: UP
Listen in your browser - HTML5 player(in browser, HTML5)
Click here to listen with your own player(launches your MP3 player)

TNCC 261100Z 12008KT 9999 SCT021 28/24 Q1011 NOSIG

TNCC Flight Activity (Flightaware)

Listeners: 0 out of 1458 total

Curacao Control: 124.100
Curacao Control: 127.100

TNCC Radar (Archives)
Willemstad, Curacao

Feed Status: UP
Listen in your browser - HTML5 player(in browser, HTML5)
Click here to listen with your own player(launches your MP3 player)

TNCC 261100Z 12008KT 9999 SCT021 28/24 Q1011 NOSIG

TNCC Flight Activity (Flightaware)

Listeners: 0 out of 1458 total

Hato Radar (1700-2300Z): 119.800

TNCC Tower (Archives)
Willemstad, Curacao

Feed Status: UP
Listen in your browser - HTML5 player(in browser, HTML5)
Click here to listen with your own player(launches your MP3 player)

TNCC 261100Z 12008KT 9999 SCT021 28/24 Q1011 NOSIG

TNCC Flight Activity (Flightaware)

Listeners: 0 out of 1458 total

Hato Tower: 118.300

TNCC Twr/Radar/Control (Archives)
Willemstad, Curacao

Feed Status: UP
Listen in your browser - HTML5 player(in browser, HTML5)
Click here to listen with your own player(launches your MP3 player)

TNCC 261100Z 12008KT 9999 SCT021 28/24 Q1011 NOSIG

TNCC Flight Activity (Flightaware)

Listeners: 0 out of 1458 total

Curacao Control: 127.100
Hato Radar: 119.600
Hato Tower: 118.300

TTCP Gnd/Twr/App (Archives)
Scarborough, Trinidad and Tobago

Feed Status: UP
Listen in your browser - HTML5 player(in browser, HTML5)
Click here to listen with your own player(launches your MP3 player)

TTCP 261110Z 00000KT 4000 TS SCT008CB SCT012 27/25 Q1012 RMK CB NE-E-SE/ W

TTCP Flight Activity (Flightaware)

Listeners: 0 out of 1458 total

Piarco Approach: 119.000
Robinson Ground: 121.700
Robinson Tower: 118.400

TTPP Apron/Gnd/Twr (Archives)
Port of Spain, Trinidad and Tobago

Feed Status: UP
Listen in your browser - HTML5 player(in browser, HTML5)
Click here to listen with your own player(launches your MP3 player)

TTPP 261100Z 00000KT 9999 VCTS FEW010CB 25/24 Q1011 TEMPO 3000 TSRA RMK CB NNE/ NE/ E/ ESE/ SE/ SW

TTPP Flight Activity (Flightaware)

Listeners: 1 out of 1458 total

Piarco Apron: 121.750
Piarco Ground: 121.900
Piarco Tower: 118.100

TTPP Piarco App/Center
Port of Spain, Trinidad and Tobago

Feed Status: DOWN
Offline since: 2022-09-25 23:30:23 UTC

TTPP 261100Z 00000KT 9999 VCTS FEW010CB 25/24 Q1011 TEMPO 3000 TSRA RMK CB NNE/ NE/ E/ ESE/ SE/ SW

Piarco Approach: 119.550
Piarco Approach: 119.000
Piarco Approach (backup): 124.000
Piarco Center: 123.700
Piarco Center (Oceanic): 126.500
Piarco Center (South Sector): 125.400
Piarco Center Oceanic (Backup): 133.100